Location: Sungai Bunut
(2.6333°N, 113.7333°E)
Time: 15:02:03
(UTC+00:00)

Altair - Pass Details

Date: 05 December 2023
Orbit: 1501 x 1682 km, 47.2° (Epoch: 24 February)

Event Time Altitude Azimuth Distance (km) Brightness Sun altitude
Rises 22:32:36 0° 237° (WSW) 4,926 9.8 2.9°
Reaches altitude 10° 22:36:03 10° 244° (WSW) 3,926 9.3 3.7°
Maximum altitude 22:45:17 41° 311° (NW) 2,225 8.0 5.8°
Drops below altitude 10° 22:54:17 10° 18° (NNE) 3,810 9.6 7.9°
Sets 22:57:37 0° 26° (NNE) 4,768 10.1 8.6°
